TimeCDT,TemperatureF,Dew PointF,Humidity,Sea Level PressureIn,VisibilityMPH,Wind Direction,Wind SpeedMPH,Gust SpeedMPH,PrecipitationIn,Events,Conditions,WindDirDegrees,DateUTC
12:15 AM,55.4,50.0,82,30.00,10.0,SE,9.2,-,N/A,,Clear,130,2013-10-28 05:15:00
12:35 AM,56.3,51.1,83,29.99,10.0,SSE,10.4,-,N/A,,Clear,150,2013-10-28 05:35:00
12:55 AM,55.8,51.3,85,29.99,10.0,SSE,9.2,-,N/A,,Clear,150,2013-10-28 05:55:00
1:15 AM,55.0,51.1,86,30.00,10.0,SE,6.9,-,N/A,,Clear,140,2013-10-28 06:15:00
1:35 AM,54.3,50.9,88,30.00,7.0,SE,8.1,-,N/A,,Clear,140,2013-10-28 06:35:00
1:55 AM,54.5,51.3,89,29.99,7.0,SE,8.1,-,N/A,,Clear,140,2013-10-28 06:55:00
2:22 AM,53.6,50.0,88,29.99,5.0,ESE,6.9,-,N/A,,Clear,120,2013-10-28 07:22:00
2:35 AM,52.7,50.2,91,29.99,4.0,ESE,6.9,-,N/A,,Clear,120,2013-10-28 07:35:00
2:55 AM,52.7,50.4,92,29.99,4.0,ESE,6.9,-,N/A,,Clear,120,2013-10-28 07:55:00
3:15 AM,52.7,50.5,92,29.99,4.0,SE,6.9,-,N/A,,Clear,130,2013-10-28 08:15:00
3:35 AM,54.0,52.0,93,30.00,4.0,SE,9.2,-,N/A,,Clear,140,2013-10-28 08:35:00
3:55 AM,53.6,51.6,93,29.99,4.0,SE,9.2,-,N/A,,Clear,140,2013-10-28 08:55:00
4:15 AM,53.6,51.4,92,29.99,3.0,SE,9.2,-,N/A,,Scattered Clouds,130,2013-10-28 09:15:00
4:35 AM,53.6,51.8,94,29.99,3.0,SE,9.2,-,N/A,,Scattered Clouds,140,2013-10-28 09:35:00
4:55 AM,54.1,52.3,94,29.99,2.0,SE,8.1,-,N/A,,Overcast,130,2013-10-28 09:55:00
5:15 AM,53.6,51.8,94,30.00,1.8,SE,9.2,-,N/A,,Overcast,140,2013-10-28 10:15:00
5:35 AM,54.5,52.7,94,29.99,0.2,SE,10.4,-,N/A,Fog,Fog,140,2013-10-28 10:35:00
5:55 AM,54.5,52.7,94,30.00,0.2,SE,9.2,-,N/A,Fog,Fog,130,2013-10-28 10:55:00
6:15 AM,55.0,53.4,94,30.00,0.5,SE,9.2,-,N/A,Fog,Fog,140,2013-10-28 11:15:00
6:35 AM,54.9,53.2,94,30.01,0.5,SE,6.9,-,N/A,Fog,Fog,130,2013-10-28 11:35:00
6:55 AM,54.0,52.3,94,30.01,0.2,ESE,8.1,-,N/A,Fog,Fog,120,2013-10-28 11:55:00
7:15 AM,54.9,53.2,94,30.02,0.2,SE,10.4,-,N/A,Fog,Fog,140,2013-10-28 12:15:00
7:35 AM,55.6,54.0,94,30.02,0.2,SE,10.4,-,N/A,Fog,Fog,140,2013-10-28 12:35:00
7:55 AM,56.3,54.7,94,30.03,0.5,SE,9.2,-,N/A,Fog,Fog,140,2013-10-28 12:55:00
8:15 AM,56.5,54.9,94,30.03,1.2,SE,9.2,-,N/A,,Overcast,140,2013-10-28 13:15:00
8:35 AM,56.8,55.4,95,30.04,0.5,SE,9.2,-,N/A,Fog,Fog,140,2013-10-28 13:35:00
8:55 AM,57.4,55.8,94,30.04,0.2,ESE,9.2,-,N/A,Fog,Fog,120,2013-10-28 13:55:00
9:15 AM,57.9,56.3,94,30.05,0.2,SE,10.4,-,N/A,Fog,Fog,140,2013-10-28 14:15:00
9:35 AM,57.9,56.3,94,30.05,0.2,SSE,12.7,-,N/A,Fog,Fog,150,2013-10-28 14:35:00
9:55 AM,58.1,56.5,94,30.06,0.2,SE,10.4,-,N/A,Fog,Fog,140,2013-10-28 14:55:00
10:15 AM,58.1,56.5,94,30.06,0.5,SE,10.4,-,N/A,Fog,Fog,130,2013-10-28 15:15:00
10:35 AM,58.6,57.2,95,30.06,0.8,ESE,10.4,-,N/A,,Overcast,120,2013-10-28 15:35:00
10:55 AM,59.5,58.1,95,30.06,1.2,SE,10.4,-,N/A,,Overcast,130,2013-10-28 15:55:00
11:15 AM,60.8,59.2,94,30.06,2.0,ESE,9.2,-,N/A,,Overcast,120,2013-10-28 16:15:00
11:35 AM,61.7,59.9,94,30.06,4.0,SE,10.4,-,N/A,,Overcast,130,2013-10-28 16:35:00
11:55 AM,62.2,60.8,95,30.06,4.0,SE,11.5,-,N/A,,Overcast,140,2013-10-28 16:55:00
12:15 PM,63.0,61.2,94,30.05,5.0,SE,12.7,-,N/A,,Overcast,140,2013-10-28 17:15:00
12:35 PM,63.9,61.5,92,30.05,5.0,SE,12.7,-,N/A,,Overcast,140,2013-10-28 17:35:00
12:55 PM,64.6,61.5,90,30.04,7.0,SE,13.8,-,N/A,,Overcast,140,2013-10-28 17:55:00
1:15 PM,65.3,61.7,88,30.03,7.0,SE,15.0,-,N/A,,Overcast,140,2013-10-28 18:15:00
1:35 PM,65.7,61.7,87,30.02,7.0,SSE,12.7,-,N/A,,Overcast,150,2013-10-28 18:35:00
1:55 PM,65.8,61.7,86,30.00,5.0,SE,11.5,-,N/A,,Overcast,140,2013-10-28 18:55:00
2:15 PM,66.2,61.7,85,29.99,5.0,SE,12.7,-,N/A,,Overcast,140,2013-10-28 19:15:00
2:35 PM,66.4,62.2,86,29.98,4.0,SE,12.7,-,N/A,,Overcast,140,2013-10-28 19:35:00
2:55 PM,67.8,62.2,82,29.97,10.0,SE,12.7,-,N/A,,Overcast,130,2013-10-28 19:55:00
3:15 PM,68.5,62.2,80,29.97,10.0,SE,15.0,-,N/A,,Overcast,130,2013-10-28 20:15:00
3:35 PM,68.5,62.6,81,29.96,10.0,SE,12.7,-,N/A,,Overcast,130,2013-10-28 20:35:00
3:55 PM,68.7,62.2,80,29.96,10.0,ESE,15.0,-,N/A,,Overcast,120,2013-10-28 20:55:00
4:15 PM,69.3,62.6,79,29.95,10.0,ESE,15.0,19.6,N/A,,Overcast,120,2013-10-28 21:15:00
4:35 PM,71.6,63.1,75,29.94,10.0,ESE,19.6,23.0,N/A,,Mostly Cloudy,120,2013-10-28 21:35:00
4:55 PM,70.7,62.8,76,29.94,10.0,ESE,18.4,25.3,N/A,,Scattered Clouds,120,2013-10-28 21:55:00
5:15 PM,70.7,62.8,76,29.94,10.0,ESE,20.7,-,N/A,,Mostly Cloudy,120,2013-10-28 22:15:00
5:35 PM,70.7,62.8,76,29.94,10.0,ESE,17.3,-,N/A,,Scattered Clouds,120,2013-10-28 22:35:00
6:03 PM,69.8,62.6,78,29.94,10.0,ESE,18.4,-,N/A,,Scattered Clouds,120,2013-10-28 23:03:00
6:15 PM,69.8,63.0,79,29.94,10.0,ESE,18.4,-,N/A,,Scattered Clouds,120,2013-10-28 23:15:00
6:35 PM,69.8,63.1,79,29.94,10.0,ESE,15.0,21.9,N/A,,Clear,120,2013-10-28 23:35:00
6:55 PM,69.3,63.1,81,29.93,10.0,ESE,17.3,20.7,N/A,,Clear,120,2013-10-28 23:55:00
7:15 PM,68.4,63.0,83,29.94,10.0,ESE,12.7,-,N/A,,Clear,120,2013-10-29 00:15:00
7:35 PM,69.1,63.1,81,29.95,10.0,SE,15.0,-,N/A,,Clear,140,2013-10-29 00:35:00
7:55 PM,70.2,63.1,78,29.96,10.0,SE,18.4,23.0,N/A,,Clear,140,2013-10-29 00:55:00
8:15 PM,70.2,63.0,78,29.96,10.0,SE,17.3,23.0,N/A,,Clear,140,2013-10-29 01:15:00
8:35 PM,70.3,63.1,78,29.97,10.0,SE,19.6,-,N/A,,Scattered Clouds,140,2013-10-29 01:35:00
8:55 PM,69.8,63.0,79,29.97,10.0,SE,19.6,25.3,N/A,,Scattered Clouds,140,2013-10-29 01:55:00
9:15 PM,69.4,63.0,80,29.97,10.0,SE,20.7,26.5,N/A,,Scattered Clouds,140,2013-10-29 02:15:00
9:35 PM,69.4,63.0,80,29.97,10.0,SSE,19.6,31.1,N/A,,Scattered Clouds,150,2013-10-29 02:35:00
9:55 PM,68.9,63.0,81,29.98,10.0,SSE,21.9,25.3,N/A,,Clear,150,2013-10-29 02:55:00
10:15 PM,68.9,63.0,81,29.98,10.0,SSE,21.9,29.9,N/A,,Clear,150,2013-10-29 03:15:00
10:35 PM,68.9,63.0,81,29.98,10.0,SSE,24.2,28.8,N/A,,Clear,150,2013-10-29 03:35:00
10:55 PM,68.9,62.8,81,29.98,10.0,SSE,21.9,26.5,N/A,,Clear,150,2013-10-29 03:55:00
11:15 PM,68.9,62.6,80,29.99,10.0,SSE,19.6,26.5,N/A,,Clear,150,2013-10-29 04:15:00
11:35 PM,68.9,62.4,80,29.99,10.0,SE,19.6,-,N/A,,Clear,140,2013-10-29 04:35:00
11:55 PM,68.9,62.2,79,29.99,10.0,SE,18.4,-,N/A,,Scattered Clouds,140,2013-10-29 04:55:00